Regional Weather Roundup
Issued by NWS

Home | Current Version | Previous Version | Text Only | Print | Product List | Glossary Off
Versions: 1 2 3 4 5 6 7 8 9 10 11 12 13 14 15 16 17 18 19 20 21 22 23 24 25 26 27 28 29 30 31 32 33 34 35 36 37 38 39 40 41 42 43 44 45 46 47 48 49 50

000
ASUS43 KLMK 291402
RWRKY
KENTUCKY REGIONAL WEATHER ROUNDUP
NATIONAL WEATHER SERVICE LOUISVILLE KY
1000 AM EDT SUN MAR 29 2015

NOTE "FAIR" INDICATES FEW OR NO CLOUDS BELOW 12,000 FEET
WITH NO SIGNIFICANT WEATHER AND/OR OBSTRUCTIONS TO VISIBILITY.

KYZ001>023-026-027-061>063-070>075-291500-
WESTERN AND SOUTH CENTRAL KENTUCKY

CITY           SKY/WX    TMP DP  RH WIND       PRES   REMARKS
PADUCAH        SUNNY     41  20  43 S13       30.27F
HENDERSON      SUNNY     37  19  48 S14G20    30.28F WCI  29
OWENSBORO      MOSUNNY   38  23  55 S14       30.31F WCI  30
HOPKINSVILLE   SUNNY     38  18  44 S13       30.31F WCI  30
BOWLING GREEN  SUNNY     38  20  48 SE7       30.36R WCI  33
GLASGOW        NOT AVBL
$$

KYZ024-025-028>034-038-045-046-053-291500-
NORTH CENTRAL KENTUCKY

CITY           SKY/WX    TMP DP  RH WIND       PRES   REMARKS
LOUISVILLE/SDF MOSUNNY   36  18  48 SE12      30.34S WCI  28
LOUISVILLE/LOU SUNNY     36  17  46 S8        30.34F WCI  30
FORT KNOX      SUNNY     36  18  48 S13       30.31S WCI  28
$$

KYZ035>037-039>044-047>052-055>060-089>105-291500-
NORTHEAST KENTUCKY

CITY           SKY/WX    TMP DP  RH WIND       PRES   REMARKS
LEXINGTON      SUNNY     33  16  49 S13       30.35S WCI  24
COVINGTON      MOSUNNY   32  16  51 S15       30.33F WCI  22
FRANKFORT      SUNNY     33  17  51 SE9       30.34F WCI  25
$$

KYZ054-064>069-076>088-106>120-291500-
SOUTHEAST KENTUCKY

CITY           SKY/WX    TMP DP  RH WIND       PRES   REMARKS
JACKSON        SUNNY     31  14  49 CALM      30.37R
LONDON         SUNNY     33  15  47 SE5       30.36S WCI  29
SOMERSET       NOT AVBL
MIDDLESBORO    SUNNY     33  16  48 SE3       30.39S
MONTICELLO     SUNNY     36  18  48 SE7       30.38F WCI  30
$$



USA.gov is the U.S. government's official web portal to all federal, state and local government web resources and services.